Simultaneous Nadir Overpasses (SNOs) Predictions

Prediction of SNOs between GOES-17 and AQUA Satellite Orbit:

Table of predicted SNOs for the next 14.0 days since TLE Epoch: 6/7/2019
Index Date Time (GOES-17) GOES-17 Lat,Lon AQUA Lat,Lon Distance(km) Time Diff (sec)
1 06/08/2019 22:36:32 -0.00,-137.18 0.47,-134.96 252.67 80
2 06/09/2019 10:57:47 0.01,-137.20 0.60,-140.12 330.65 80
3 06/11/2019 10:45:35 0.01,-137.19 -0.02,-137.16 5.23 80
4 06/13/2019 10:30:43 0.01,-137.18 -0.64,-134.20 339.34 80
5 06/13/2019 22:52:07 -0.01,-137.15 -0.50,-139.38 254.99 80
6 06/15/2019 22:42:35 0.00,-137.12 0.13,-136.43 78.93 80
7 06/17/2019 22:30:23 0.00,-137.10 0.76,-133.47 412.39 80
8 06/18/2019 10:51:38 -0.00,-137.12 0.33,-138.62 171.33 80
9 06/20/2019 10:39:26 0.00,-137.09 -0.31,-135.67 161.66 80
10 06/20/2019 22:58:10 0.00,-137.05 -0.82,-140.86 433.33 80




NCC Satellite Simultaneous Nadir Overpasses (SNOs) Prediction Service
